Miscellaneous Local Product
Issued by NWS North Platte, NE

Home | Current Version | Previous Version | Text Only | Print | Product List | Glossary On
Versions: 1 2 3 4 5 6 7 8 9 10 11 12 13 14 15 16 17 18 19 20 21 22 23 24 25 26 27 28 29 30 31 32 33 34 35 36 37 38 39 40 41 42 43 44 45 46 47 48 49 50
547
AXUS43 KLBF 251010
MISLBF


WESTERN AND NORTH CENTRAL NEBRASKA HOURLY WEATHER ROUNDUP
NATIONAL WEATHER SERVICE NORTH PLATTE NE
500 AM CDT MON JUL 25 2016

NOTE: "FAIR" INDICATES FEW OR NO CLOUDS BELOW 12,000 FEET WITH NO
SIGNIFICANT WEATHER AND/OR OBSTRUCTIONS TO VISIBILITY.

NOTE: STATIONS NOT REPORTING VARIABLES SUCH AS SKY/WEATHER OR
PRESSURE ARE PROVIDED BY RAWS AND APRS NETWORKS AND ARE NOT UNDER
NATIONAL WEATHER SERVICE QUALITY CONTROL.

...OBSERVATIONS IN AND NEAR THE EASTERN PANHANDLE OF NEBRASKA...

CITY           SKY/WX    TMP DP  RH WIND       PRES   REMARKS
PINE RIDGE     CLEAR     63  58  83 SW6       30.14S
CHADRON        CLEAR     64  56  75 S10       30.12F
ALLIANCE       CLEAR     55  54  96 SE8       30.18R
SIDNEY         CLEAR     51  49  92 CALM      30.21F
CRESCENT LAKE    N/A     61  59  94 SE3         N/A
$$

...OBSERVATIONS IN NORTHERN NEBRASKA AND FAR SOUTHERN SOUTH DAKOTA...

CITY           SKY/WX    TMP DP  RH WIND       PRES   REMARKS
WINNER         FAIR      66  53  63 S7        30.09S
VALENTINE      CLEAR     58  54  86 S7        30.13R
THEDFORD       CLOUDY    57  56  95 CALM      30.17R
AINSWORTH      CLEAR     58  53  84 S7        30.14R
O`NEILL        CLOUDY    62  58  88 CALM      30.11S
ORD            CLOUDY    61  58  90 CALM      30.11R
BROKEN BOW     CLOUDY    62  60  93 CALM      30.14R
VALENTINE NWR    N/A     60  56  86 CALM        N/A
BUTTE            N/A     66  58  76 S3          N/A
HALSEY           N/A     60  58  94 CALM        N/A
EWING            N/A     59  57  92 CALM        N/A
$$

...OBSERVATIONS IN SOUTHWEST NEBRASKA AND FAR NORTHEAST COLORADO...

CITY           SKY/WX    TMP DP  RH WIND       PRES   REMARKS
WRAY           FAIR      61  57  88 CALM      30.18
HOLYOKE          N/A     59  55  88 CALM      30.20R
IMPERIAL       CLEAR     62  59  90 NE3       30.17R
OGALLALA       CLEAR     60  57  91 CALM      30.17S
NORTH PLATTE   PTCLDY    60  59  96 E3        30.15S
MCCOOK         MOCLDY    64  61  90 NE6       30.13R
LEXINGTON      PTCLDY    66  62  86 CALM      30.14R
STAPLETON        N/A     61  59  92 CALM        N/A
GOTHENBURG       N/A     66  59  79 CALM        N/A
CALLAWAY         N/A     61  59  94 CALM        N/A
$$

...OBSERVATIONS IN CENTRAL LINCOLN COUNTY AREA...

CITY           SKY/WX    TMP DP  RH WIND       PRES   REMARKS
N.P. AIRPORT   PTCLDY    60  59  96 E3        30.15S
N.P. DOWNTOWN    N/A     65  61  87 CALM        N/A
N.P. HILLCREST   N/A     64  61  89 E6          N/A
$$

...SOME OBSERVATIONS FROM AROUND THE REGION...

CITY           SKY/WX    TMP DP  RH WIND       PRES   REMARKS
DENVER         PTCLDY    61  53  75 S12       30.23F
LARAMIE        CLOUDY    52  50  93 S10       30.29F
CHEYENNE       CLEAR     56  54  93 S12       30.25S
SCOTTSBLUFF    CLEAR     59  55  87 E8        30.17S
RAPID CITY     CLEAR     68  55  63 S10       30.08F
BISMARCK       CLEAR     61  58  90 NE6       30.03S
PIERRE         CLEAR     68  55  63 SW3       30.04S
SIOUX FALLS    CLEAR     60  57  89 CALM      30.07S
OMAHA          PTCLDY    66  62  87 NW6       30.08R
GRAND ISLAND   CLOUDY    65  62  90 CALM      30.12R
KANSAS CITY    CLOUDY    74  67  78 NE8       30.03S
WICHITA        CLOUDY    81  71  71 W16       30.01R
OKLAHOMA CITY  CLOUDY    79  71  76 SW3       29.99R
DALLAS         PTCLDY    82  72  71 SE3       29.94R
AMARILLO       CLEAR     71  63  75 E10       30.12F
DODGE CITY     LGT RAIN  67  66  97 NE12      30.09S
HAYS           CLOUDY    70  61  73 SW6       30.07F
GOODLAND       PTCLDY    61  59  93 E5        30.17R
$$




USA.gov is the U.S. government's official web portal to all federal, state and local government web resources and services.